sat.trackr.live / text

‹ back to catalog

STARLINK-6163

NORAD 57128 · 2023-090AD

PAYLOAD ACTIVE UNKNOWN

§ Identity

Operator
Country
US
Launch date
2023-06-23
Launch site
AFETR
Launch vehicle
Mass (kg)
RCS (m²)

Purposes: comms

External: N2YO · Heavens-Above · Gunter

§ Orbital elements

Epoch: 2026-05-24T15:42:50.639328Z

Period
94.27 min
Inclination
43.0015°
Eccentricity
0.0001858
Mean motion
15.27577109 rev/d
Perigee alt
481.8 km
Apogee alt
484.3 km
Semi-major
6,861.2 km
B*
3.6504e-5
RAAN
212.2486°
Arg perigee
272.3825°
Mean anomaly
87.6814°
Rev number
16,176

§ Raw data

STARLINK-61631 57128U 23090AD  26144.65475277  .00000742  00000+0  36504-4 0  99912 57128  43.0015 212.2486 0001858 272.3825  87.6814 15.27577109161763

JSON: /api/v1/satellites/57128 · /tle

For live sub-satellite position, see the globe view (requires WebGL).

§ Visibility from observer

Set your observer location to see the next 7 days of passes ≥ 10°. The values pass through the URL so the page stays shareable.

No JS? Fill the form by hand. The geolocation button needs JavaScript.